Regional Weather Roundup
Issued by NWS

Home | Current Version | Previous Version | Graphics & Text | Print | Product List | Glossary On
Versions: 1 2 3 4 5 6 7 8 9 10 11 12 13 14 15 16 17 18 19 20 21 22 23 24 25 26 27 28 29 30 31 32 33 34 35 36 37 38 39 40 41 42 43 44 45 46 47 48 49 50
000
ASUS43 KOAX 230902
RWRNE

WEATHER ROUNDUP FOR NEBRASKA
NATIONAL WEATHER SERVICE OMAHA NE
400 AM CDT TUE MAY 23 2017

NOTES: SATELLITE DATA IS BEING USED TO AUGMENT CLOUD COVER ABOVE
       12000 FEET.
       "FAIR" INDICATES FEW OR NO CLOUDS BELOW 12,000 FEET WITH NO
       SIGNIFICANT WEATHER AND/OR OBSTRUCTIONS TO VISIBILITY.

  * THESE STATIONS DO NOT REPORT WEATHER SUCH AS RAIN...SNOW OR FOG.

NEZ001>004-019>022-054>056-231000-
NEBRASKA PANHANDLE

CITY           SKY/WX    TMP DP  RH WIND       PRES   REMARKS
SCOTTSBLUFF    CLEAR     36  33  89 NW6       30.17F WCI  31
ALLIANCE       CLOUDY    40  38  93 W9        30.12F WCI  34
CHADRON        CLOUDY    45  39  79 NW9       30.14F
GORDON         PTSUNNY   43  39  86 W9        30.10S
KIMBALL        CLEAR     38  36  92 NW12      30.18F WCI  31
SIDNEY         CLEAR     37  35  92 W9        30.16F WCI  30
$$

NEZ057>060-069>072-079>082-231000-
SOUTHWEST NEBRASKA

CITY           SKY/WX    TMP DP  RH WIND       PRES   REMARKS
NORTH PLATTE   PTCLDY    41  39  93 W7        30.08S
IMPERIAL       CLEAR     42  38  85 NW12      30.12S
LEXINGTON      CLEAR     45  42  92 W9        30.06R
MCCOOK         CLEAR     45  42  89 NW16      30.08F
OGALLALA       PTCLDY    43  40  88 NW12      30.12S
$$

NEZ005>010-023>029-035>040-094-231000-
NORTH CENTRAL NEBRASKA

CITY           SKY/WX    TMP DP  RH WIND       PRES   REMARKS
VALENTINE      CLOUDY    48  42  80 W12       30.02F
AINSWORTH      CLOUDY    47  45  91 W8        30.01F
BROKEN BOW     CLOUDY    47  43  86 NW15      30.03F
O`NEILL        PTCLDY    45  41  88 W6        29.99S
ORD            MOCLDY    46  41  82 NW8       29.99F
THEDFORD       CLOUDY    40  39  95 W8        30.06F
$$

NEZ041-046>049-061>064-073>077-083>087-231000-
SOUTH CENTRAL NEBRASKA

CITY           SKY/WX    TMP DP  RH WIND       PRES   REMARKS
GRAND ISLAND   CLEAR     47  44  90 NW9       29.99F
AURORA         CLOUDY    47  45  90 NW8       29.98S
HASTINGS       PTCLDY    48  44  86 NW8       30.00S
HEBRON         PTCLDY    52  48  86 NW5       29.96S
HOLDREGE       PTCLDY    46  44  91 NW9       30.04S
KEARNEY *      CLEAR     48  43  81 NW9       30.02S
$$

NEZ011>018-030>034-042>045-231000-
NORTHEAST NEBRASKA

CITY           SKY/WX    TMP DP  RH WIND       PRES   REMARKS
NORFOLK        CLEAR     46  41  82 NW7       29.94F
ALBION         CLEAR     46  42  88 NW7       29.97F
BLAIR          PTCLDY    49  45  86 W8        29.91S
FREMONT        PTCLDY    48  45  87 W8        29.92F
TEKAMAH        CLEAR     50  43  77 W12       29.91S
WAYNE          CLEAR     47  46  97 NW8       29.93S
$$

NEZ050>053-065>068-078-088>093-231000-
SOUTHEAST NEBRASKA

CITY           SKY/WX    TMP DP  RH WIND       PRES   REMARKS
LINCOLN        PTCLDY    51  45  79 NW6       29.95S
OMAHA EPPLEY   MOCLDY    50  44  80 NW9       29.90S
BEATRICE       CLOUDY    50  47  91 NW5       29.95S
FALLS CITY     MOCLDY    54  50  86 NW10      29.89R
NEBRASKA CITY  CLOUDY    52  45  76 N13       29.91R
PLATTSMOUTH    CLOUDY    50  44  80 W6        29.91S
$$

NEZ044-045-051>053-067-231000-
OMAHA AREA

CITY           SKY/WX    TMP DP  RH WIND       PRES   REMARKS
OMAHA EPPLEY   MOCLDY    50  44  80 NW9       29.90S
BLAIR          PTCLDY    49  45  86 W8        29.91S
FREMONT        PTCLDY    48  45  87 W8        29.92F
MILLARD        CLOUDY    53  48  84 NW7       29.91F
OFFUTT AFB     MOCLDY    51  46  84 NW8       29.90S
PLATTSMOUTH    CLOUDY    50  44  80 W6        29.91S
WAHOO          FAIR      49  44  82 NW8       29.93S
$$




USA.gov is the U.S. government's official web portal to all federal, state and local government web resources and services.